Change the Weather History Date:

Wednesday, November 28, 2012

  Actual Average Record
Temperature  
Mean Temperature 45 °F -  
Max Temperature 55 °F 47 °F 66 °F (1999)
Min Temperature 35 °F 29 °F 16 °F (1976)
Degree Days  
Heating Degree Days 20    
Moisture  
Dew Point 20 °F    
Average Humidity 36    
Maximum Humidity 54    
Minimum Humidity 14    
Precipitation  
Precipitation 0.00 in - - ()
Sea Level Pressure  
Sea Level Pressure 30.19 in    
Wind  
Wind Speed 1 mph (NW)    
Max Wind Speed 6 mph    
Max Gust Speed -    
Visibility 9 miles    
Events      
Averages and records for this station are not official NWS values.
T = Trace of Precipitation, MM = Missing Value Source: NWS Daily Summary

Daily Weather History Graph

Daily Weather History Graph

Search for Another Location

Airport or City:

Trip Planner

Search our weather history database for the weather conditions in past years. The results will help you decide how hot, cold, wet, or windy it might be!

Date:

Astronomy

Nov. 28, 2012 Rise Set
Actual Time 7:17 AM MST 5:09 PM MST
Civil Twilight 6:49 AM MST 5:38 PM MST
Nautical Twilight 6:17 AM MST 6:10 PM MST
Astronomical Twilight 5:46 AM MST 6:41 PM MST
Moon 5:27 PM MST (11/28) 7:18 AM MST (11/28)
Length of Visible Light 10h 48m
Length of Day
9h 51m
Full, 100% of the Moon is Illuminated
Nov 28
Full
Dec 6
Last Quarter
Dec 13
New
Dec 19
First Quarter
Dec 28
Full

Hourly Weather History & Observations

Time (MST) Temp. Windchill Dew Point Humidity Pressure Visibility Wind Dir Wind Speed Gust Speed Precip Events Conditions
12:53 AM 42.1 °F - 21.0 °F 43% 30.25 in 8.0 mi Calm Calm - N/A   Clear
1:53 AM 39.9 °F 37.8 °F 19.9 °F 45% 30.24 in 10.0 mi West 3.5 mph - N/A   Clear
2:53 AM 41.0 °F - 19.9 °F 43% 30.24 in 10.0 mi Calm Calm - N/A   Clear
3:53 AM 37.9 °F - 21.0 °F 51% 30.25 in 10.0 mi Calm Calm - N/A   Clear
4:53 AM 37.0 °F - 19.9 °F 50% 30.25 in 10.0 mi Calm Calm - N/A   Clear
5:53 AM 37.0 °F - 19.0 °F 48% 30.27 in 10.0 mi Calm Calm - N/A   Clear
6:53 AM 35.1 °F - 19.9 °F 54% 30.29 in 10.0 mi Calm Calm - N/A   Clear
7:53 AM 37.9 °F 35.5 °F 19.0 °F 47% 30.30 in 10.0 mi West 3.5 mph - N/A   Clear
8:53 AM 43.0 °F - 19.0 °F 38% 30.29 in 10.0 mi Calm Calm - N/A   Clear
9:53 AM 45.0 °F - 19.9 °F 37% 30.28 in 10.0 mi Calm Calm - N/A   Clear
10:53 AM 46.9 °F - 21.0 °F 36% 30.27 in 10.0 mi Calm Calm - N/A   Clear
11:53 AM 48.9 °F - 21.9 °F 35% 30.25 in 10.0 mi Variable 3.5 mph - N/A   Clear
12:53 PM 54.0 °F - 21.9 °F 29% 30.19 in 10.0 mi Variable 3.5 mph - N/A   Clear
1:53 PM 54.0 °F - 19.9 °F 26% 30.16 in 10.0 mi Variable 3.5 mph - N/A   Clear
2:53 PM 55.9 °F - 21.0 °F 26% 30.10 in 10.0 mi NE 4.6 mph - N/A   Clear
3:53 PM 55.9 °F - 19.9 °F 25% 30.09 in 10.0 mi ENE 5.8 mph - N/A   Clear
4:53 PM 54.0 °F - 19.0 °F 25% 30.09 in 10.0 mi Calm Calm - N/A   Clear
5:53 PM 50.0 °F - 21.0 °F 32% 30.12 in 10.0 mi West 3.5 mph - N/A   Scattered Clouds
6:53 PM 48.0 °F - 21.0 °F 34% 30.14 in 5.0 mi Calm Calm - N/A   Haze
7:53 PM 46.0 °F - 21.0 °F 37% 30.14 in 7.0 mi Calm Calm - N/A   Clear
8:53 PM 45.0 °F - 21.0 °F 39% 30.12 in 5.0 mi Calm Calm - N/A   Haze
9:53 PM 45.0 °F - 21.0 °F 39% 30.13 in 8.0 mi Calm Calm - N/A   Clear
10:53 PM 45.0 °F - 21.9 °F 40% 30.12 in 10.0 mi Calm Calm - N/A   Clear
11:53 PM 44.1 °F - 21.9 °F 42% 30.12 in 10.0 mi Calm Calm - N/A   Clear